Tracking 31027 objects as of 18-Jul-2025
HD Live streaming from Space Station
objects crossing your sky now

FENGYUN 1D

Track FENGYUN 1D now!
10-day predictions
FENGYUN 1D is classified as:


NORAD ID: 27431
Int'l Code: 2002-024B
Perigee: 854.1 km
Apogee: 877.9 km
Inclination: 99.0 °
Period: 102.1 minutes
Semi major axis: 7236 km
RCS: 2.2279 m2 (large)
Launch date: May 15, 2002
Source: People's Republic of China (PRC)
Launch site: Taiyaun Space Center, China (TSC)

Polar-orbiting satellite; carries Multichannel Visible and Infrared Scan Radiometer (MVISR); means "wind and cloud."
Your satellite tracking list
Your tracking list is empty




NASA's NSSDC Master Catalog

Two Line Element Set (TLE):
1 27431U 02024B   25199.60461705 -.00000021  00000-0  13482-4 0  9996
2 27431  99.0025 245.5798 0016476 100.5922 259.7105 14.10152834192467
Source of the keplerian elements: AFSPC